Location: Sentenac
(42.8761°N, 1.1780°E)
Time: 11:24:02
(UTC+00:00)

Daily predictions for brighter satellites

Satellite Brightness Start Highest point End
(mag) Time Altitude Azimuth Time Altitude Azimuth Time Altitude Azimuth
Cosmos 2233 Rocket 4.0 18:25:29 10° S 18:31:33 70° E 18:37:41 10° NNE
Resurs 1-3 4.0 18:31:19 10° SE 18:35:23 41° ENE 18:39:28 10° N
SAR-Lupe-2 3.8 18:39:54 10° SSE 18:43:22 50° ENE 18:46:50 10° N
Meteor PRIRODA 3.9 18:45:05 10° SE 18:48:09 37° ENE 18:51:14 10° N
Landsat 7 4.3 18:43:35 10° S 18:48:14 66° WSW 18:52:56 10° NNW
Cosmos 1536 3.9 18:49:35 10° SE 18:52:35 23° E 18:55:37 10° NE
Okean 3 Rocket 4.5 18:49:10 10° SSE 18:53:00 28° E 18:56:48 10° NNE
Cosmos 1842 3.9 18:50:13 10° NNE 18:53:29 31° ENE 18:56:43 10° SE
Cosmos 2061 Rocket 4.3 18:47:11 10° SSW 18:53:35 77° W 19:00:04 10° N
COSMOS 2428 2.7 18:48:14 10° SSW 18:53:56 82° ESE 18:59:41 10° NNE
USA 59 Rocket 0.4 18:50:44 10° NNW 18:54:37 54° NE 19:00:00 10° SE
Cosmos 1707 3.5 18:54:11 10° NNE 18:57:17 28° ENE 19:00:08 11° SE
Okean O Rocket 3.2 18:57:42 13° E 18:59:56 18° ENE 19:02:56 10° NNE
USA 306 4.0 19:04:02 10° W 19:06:44 29° NNW 19:09:51 10° NE
CZ-4B DEB 4.2 19:02:04 10° SSE 19:07:32 69° ENE 19:13:01 10° N
Cosmos 2278 Rocket 2.5 19:02:23 10° NNW 19:07:53 49° ENE 19:12:39 14° SE
CZ-4 R/B 1.4 19:04:56 10° SSE 19:08:38 52° ENE 19:12:25 10° N
CZ-4B R/B 3.6 19:07:00 10° SE 19:12:07 43° ENE 19:17:10 10° N
Cosmos 1766 Rocket 3.5 19:08:13 10° S 19:12:33 90° E 19:16:58 10° N
NOSS 3-3 (C) 4.4 19:09:37 10° S 19:14:07 30° ESE 19:19:10 10° NE
Resurs 01 Rocket 2.0 19:10:19 12° SE 19:14:11 43° ENE 19:18:22 10° N
Cosmos 44 Rocket 4.4 19:09:53 10° NW 19:14:18 41° WSW 19:18:39 10° S
NOSS 2-1 (C) 3.6 19:11:00 10° NW 19:14:57 83° NE 19:19:46 13° SE
YAOGAN 1 4.3 19:12:42 10° SSW 19:16:36 34° W 19:20:32 10° NNW
ADEOS 3.7 19:11:31 10° SSE 19:16:43 81° WSW 19:21:58 10° NNW
TSX-5 4.0 19:13:54 10° NW 19:16:58 52° WSW 19:20:15 10° SSE
Meteor 2-17 Rocket 4.4 19:11:39 10° N 19:17:38 62° E 19:23:38 10° SSE
GEOS 3 Rocket 3.7 19:13:40 16° SE 19:17:48 61° NE 19:22:55 10° NNW
Helios 1A 2.8 19:14:11 10° NNE 19:18:15 88° E 19:22:19 10° SSW
USA 290 2.3 19:15:04 10° NNW 19:18:19 60° ENE 19:20:16 22° SE
USA 186 2.1 19:17:45 21° SE 19:19:30 44° ENE 19:22:36 10° N
CZ-4B R/B 3.5 19:14:53 10° S 19:19:36 74° WSW 19:24:25 10° NNW
Cosmos 1814 Rocket 4.3 19:15:01 10° SSW 19:20:18 72° WNW 19:25:34 10° NNE
PAYLOAD B 4.2 19:15:07 10° SSE 19:20:39 68° ENE 19:26:15 10° N
SPOT 5 4.3 19:22:14 17° ENE 19:22:56 18° ENE 19:25:54 10° NNE
Okean-O 4.1 19:23:04 18° ENE 19:23:43 18° ENE 19:26:44 10° NNE
KORONAS-FOTON 3.6 19:20:43 10° N 19:24:25 86° E 19:28:05 10° S
Cosmos 1408 Rocket 4.1 19:22:58 11° SSE 19:26:41 37° E 19:30:45 10° NNE
SPOT 1/Viking Rocket 3.9 19:22:44 10° S 19:27:52 67° WSW 19:33:02 10° NNW
NOSS 3-3 (A) 4.0 19:23:16 10° S 19:28:09 41° ESE 19:33:43 10° NE
ISS -3.6 19:25:01 10° WSW 19:28:21 71° NNW 19:30:43 18° NE
CZ-4B R/B 2.7 19:24:52 10° SSE 19:28:41 89° ENE 19:32:43 10° NNW
Cosmos 2237 Rocket 2.1 19:27:23 10° SSW 19:32:57 68° ESE 19:38:33 10° NNE
SL-08 R/B 4.3 19:30:03 10° N 19:34:50 52° WNW 19:39:35 10° SSW
Aureole 3 Rocket 4.3 19:29:01 10° SSE 19:35:38 40° E 19:40:30 10° NNE
CSL-04 Rocket 3.7 19:31:44 17° SSE 19:35:51 61° ENE 19:41:06 10° N
Cosmos 1674 4.3 19:39:07 10° NNW 19:42:05 30° W 19:45:01 10° SSW
SJ-6B 4.2 19:41:05 10° SSW 19:44:24 34° W 19:47:43 10° NNW
Cosmos 1356 Rocket 3.5 19:40:15 10° NNW 19:44:27 78° W 19:47:40 16° S
Meteor 1-11 Rocket 3.6 19:39:05 10° S 19:44:40 67° E 19:50:11 10° NNE
Aureole 1 4.3 19:42:14 10° NNW 19:45:25 83° ENE 19:46:29 43° SSE
Lacrosse 4 Rocket 3.8 19:42:44 10° WNW 19:46:04 22° WSW 19:49:22 10° SSW
Meteor 1-4 Rocket 3.7 19:44:58 10° NNW 19:47:20 29° W 19:49:06 14° SSW
IKONOS-2 4.4 19:44:00 10° NNE 19:48:06 57° E 19:50:24 24° S
CARTOSAT-1 3.5 19:46:05 18° S 19:49:09 80° WSW 19:53:26 10° NNW
Cosmos 158 Rocket 3.7 19:45:05 10° S 19:49:56 70° ESE 19:54:47 10° NNE
ATLAS CENTAUR R/B 0.9 19:46:39 10° SW 19:50:09 86° WNW 19:53:52 10° NNE
NOSS 2-1 (E) 4.5 19:48:12 10° NW 19:52:16 50° WSW 19:56:03 19° SSE
Cosmos 1805 Rocket 3.7 19:52:46 45° E 19:52:48 45° E 19:56:56 10° NNE
Cosmos 1733 3.4 19:53:45 10° SSW 19:57:09 61° W 20:00:34 10° N
Cosmos 1428 Rocket 4.4 19:53:43 10° N 19:59:46 60° E 20:02:18 35° SE
USA 276 3.1 19:58:40 10° WNW 20:00:38 39° NW 20:00:38 39° NW
In-Cosmos 22 4.2 19:56:43 10° N 20:02:27 85° W 20:06:00 23° S
Cosmos 1980 4.0 19:56:53 10° SSW 20:02:31 67° WNW 20:08:12 10° NNE
Cosmos 2369 Rocket 3.7 20:00:22 10° N 20:04:36 21° NE 20:05:11 20° ENE
Sich 1 2.8 20:07:34 67° SE 20:07:57 73° E 20:12:15 10° NNE
BlueWalker 3 3.6 20:08:36 10° WNW 20:11:41 24° SW 20:12:13 23° SW
Cosmos 1943 Rocket 2.1 20:06:30 10° NNW 20:12:02 79° WSW 20:14:05 40° SSE
Terra 3.2 20:13:52 25° NE 20:13:52 25° NE 20:16:48 10° N
ACS3 Solar Sail 1.8 20:09:36 28° SSE 20:13:15 86° ENE 20:19:42 10° N
ERS-1 Rocket 3.8 20:14:04 33° NE 20:14:04 33° NE 20:18:05 10° N
Cosmos 1570 Rocket 4.5 20:09:58 10° SSW 20:15:12 62° WNW 20:20:26 10° NNE
Cosmos 2298 Rocket 4.0 20:10:39 10° NNW 20:15:55 61° ENE 20:16:27 57° E
Nadezhda 4 Rocket 4.2 20:10:52 10° NNW 20:17:07 73° W 20:21:40 20° S
Cosmos 2195 Rocket 4.3 20:11:09 10° N 20:17:17 73° E 20:19:11 46° SSE
Cosmos 2150 Rocket 3.9 20:12:29 10° NNW 20:17:36 62° ENE 20:17:56 60° E
USA 32 3.9 20:13:12 10° N 20:18:27 76° E 20:19:24 59° SSE
Cosmos 1805 4.2 20:21:37 37° N 20:21:37 37° N 20:23:57 10° N
Ariane Rocket 4.5 20:24:22 23° NE 20:24:22 23° NE 20:27:19 10° N
Cosmos 1315 Rocket 3.1 20:20:31 10° NNW 20:24:27 62° W 20:24:27 62° W
Cosmos 2026 Rocket 3.9 20:18:25 10° N 20:24:39 70° E 20:25:51 56° SE
Cosmos 1092 Rocket 3.9 20:18:49 10° N 20:25:09 69° E 20:26:28 55° SE
IRS-1A Rocket 4.4 20:26:28 53° E 20:26:42 53° ENE 20:32:15 10° N
Meteor 2-12 Rocket 4.4 20:22:20 10° N 20:28:26 60° E 20:28:56 58° E
SL-16 R/B 2.9 20:35:17 40° NE 20:35:17 40° NE 20:38:57 10° NNE
Cosmos 1125 Rocket 4.2 20:29:02 10° NNW 20:34:01 48° WSW 20:35:39 35° SSW
Okean O Rocket 2.4 20:35:02 42° SW 20:35:49 47° W 20:40:07 10° NNW
Cosmos 1634 Rocket 3.9 20:36:32 63° SSE 20:37:25 73° E 20:43:44 10° NNE
Cosmos 1656 Rocket 4.1 20:36:23 10° NNW 20:41:19 47° NE 20:41:19 47° NE
CZ-4 R/B 4.3 20:42:16 10° WSW 20:43:29 11° W 20:44:43 10° WNW
USA 59 Rocket 2.5 20:40:49 10° WNW 20:44:08 19° WSW 20:46:30 15° SSW
IRS-1C Rocket 4.3 20:45:02 59° NNE 20:45:02 59° NNE 20:49:32 10° N
Cosmos 773 Rocket 4.0 20:45:40 80° W 20:45:43 80° WNW 20:51:03 10° NNE
Resurs 01 Rocket 4.1 20:47:47 10° SW 20:50:47 18° W 20:53:52 10° NW
Cosmos 2278 Rocket 4.0 20:47:05 10° NW 20:51:37 25° WSW 20:54:31 17° SW
MetOp-B 4.3 20:56:15 68° W 20:56:15 68° W 21:01:33 10° NNW
Cosmos 2228 Rocket 4.5 20:52:41 10° N 20:55:20 34° N 20:55:20 34° N
Okean-O 3.8 21:00:32 40° WNW 21:00:32 40° WNW 21:03:58 10° NNW
SPOT 5 3.7 21:01:22 45° WNW 21:01:22 45° WNW 21:05:00 10° NNW
ISS -0.5 21:02:55 10° WNW 21:03:42 14° NW 21:03:42 14° NW
USA 267 4.2 21:08:22 32° NE 21:09:46 35° NNE 21:15:34 10° NW
Cosmos 2279 Rocket 4.2 21:20:00 64° N 21:20:00 64° N 21:25:14 10° N
Cosmos 1607 4.5 21:16:27 10° SW 21:22:48 58° NW 21:29:10 10° NNE
ATLAS CENTAUR R/B 4.4 21:27:01 10° NW 21:28:12 11° NW 21:29:23 10° NNW
NOSS 3-4 (A) 4.0 21:38:41 10° NW 21:44:37 68° NW 21:44:37 68° NW
NOSS 3-4 (C) 4.0 21:38:47 10° NW 21:44:43 68° NW 21:44:43 68° NW
Cosmos 2369 Rocket 3.5 21:43:30 10° NNW 21:46:58 38° NW 21:46:58 38° NW
Terra 4.1 21:52:34 22° NW 21:52:34 22° NW 21:54:33 10° NNW
ACS3 Solar Sail 4.2 21:54:51 11° WSW 21:58:02 15° W 22:01:38 10° NW
SL-16 R/B 4.3 22:17:00 22° WNW 22:17:54 23° NW 22:22:19 10° N
Cosmos 2344 4.4 23:20:43 10° NNW 23:27:14 59° N 23:27:14 59° N
